Location: Bad Salzschlirf
(50.3750°N, 9.3000°E)
Time: 05:12:26
(UTC+01:00)

ISS - Pass Details

Date: 24 February 2020
Orbit: 415 x 423 km, 51.6° (Epoch: 27 February)

Event Time Altitude Azimuth Distance (km) Brightness Sun altitude
Exits shadow 06:42:43 - 234° (SW) 2,244 -0.5 -6.4°
Reaches altitude 10° 06:44:34 10° 230° (SW) 1,499 -1.3 -6.1°
Maximum altitude 06:47:50 49° 154° (SSE) 552 -2.9 -5.6°
Drops below altitude 10° 06:51:07 10° 78° (ENE) 1,509 0.5 -5.0°
Sets 06:53:15 0° 73° (ENE) 2,377 1.4 -4.7°
